CW0126 Weather Reports


time (UTC)temp
F
wind
direction
speed
knots
gust
knots
rain 1hr
in
rain 24hr
in
rain mn
in
humidity
%
barometer
mb
20260503010037 51 0 0.0 0.0 0.00 0.19 0.00 100 1010.9
20260503004539 52 0 0.0 0.0 0.00 0.19 0.00 100 1011.0
20260503003047 52 0 0.0 0.0 0.00 0.19 0.00 100 1011.1
20260503001538 52 0 0.0 0.0 0.00 0.19 0.00 100 1011.1
20260503000038 52 0 0.0 0.0 0.00 0.19 0.00 100 1011.4
20260502234535 52 0 0.0 0.0 0.00 0.19 0.00 100 1011.4
20260502233035 52 0 0.0 0.0 0.00 0.19 0.00 100 1011.5
20260502231541 52 0 0.0 0.0 0.00 0.19 0.00 100 1011.5
20260502230040 52 0 0.0 0.0 0.01 0.19 0.00 100 1011.4
20260502224538 52 0 0.0 0.0 0.01 0.18 0.18 100 1011.4
20260502223037 52 0 0.0 0.0 0.01 0.18 0.18 100 1011.5
20260502221539 52 0 0.0 0.0 0.02 0.18 0.18 100 1011.5
20260502220042 52 0 0.0 0.0 0.02 0.18 0.18 100 1011.7
20260502214537 52 0 0.0 0.0 0.02 0.17 0.17 100 1011.8
20260502213041 52 0 0.0 0.0 0.03 0.17 0.17 100 1011.9
20260502211540 53 0 0.0 0.0 0.02 0.16 0.16 100 1011.9
20260502210040 53 0 0.0 0.0 0.02 0.15 0.15 100 1011.8
20260502204536 52 0 0.0 0.0 0.02 0.14 0.14 100 1011.9
20260502203059 52 0 0.0 0.0 0.03 0.14 0.14 100 1012.1
20260502201536 52 0 0.0 0.0 0.03 0.14 0.14 100 1012.1
20260502200035 52 0 0.0 0.0 0.04 0.13 0.13 100 1012.1
20260502194538 52 0 0.0 0.0 0.06 0.12 0.12 100 1012.3
20260502193038 52 0 0.0 0.0 0.06 0.11 0.11 100 1012.4
20260502191536 52 0 0.0 0.0 0.07 0.10 0.10 100 1012.5
20260502190037 51 0 0.0 0.0 0.05 0.07 0.07 100 1012.6
20260502184540 51 0 0.0 0.0 0.04 0.06 0.06 100 1012.8
20260502183039 51 0 0.0 0.0 0.04 0.04 0.04 100 1012.8
20260502181550 52 0 0.0 0.0 0.03 0.03 0.03 100 1012.8
20260502163040 59 0 0.0 0.0 0.00 0.00 0.00 20 1012.9
20260502161541 59 0 0.0 0.0 0.00 0.00 0.00 21 1013.0
20260502151545 61 300 0.0 2.6 0.00 0.00 0.00 18 1013.6
20260502123038 62 259 0.9 3.5 0.00 0.00 0.00 8 1015.2
20260502121539 62 160 0.0 1.7 0.00 0.00 0.00 8 1015.4
20260502114549 61 123 0.0 3.5 0.00 0.01 0.00 5 1015.9
20260502113041 61 357 0.0 2.6 0.00 0.01 0.00 3 1016.3
20260502111538 61 208 0.9 3.5 0.00 0.01 0.00 100 1016.5
20260502110043 60 0 0.0 3.5 0.00 0.01 0.00 100 1016.6
20260502104540 59 0 0.0 0.0 0.00 0.14 0.00 100 1016.4
20260502103037 57 0 0.9 2.6 0.00 0.14 0.00 100 1016.6
20260502101545 55 0 0.0 0.0 0.00 0.14 0.00 100 1016.7
20260502070040 51 0 0.0 0.0 0.00 0.18 0.00 100 1017.5
20260502064553 51 0 0.0 0.0 0.00 0.18 0.00 100 1017.5
20260502063038 51 0 0.0 0.0 0.00 0.18 0.00 100 1017.5
20260502061535 50 0 0.0 0.0 0.00 0.18 0.00 100 1017.5
20260502060037 50 0 0.0 0.0 0.00 0.18 0.00 100 1017.6
20260502054543 50 0 0.0 0.0 0.00 0.18 0.00 100 1017.4
20260502053039 50 0 0.0 0.0 0.00 0.18 0.00 100 1017.4
20260502051540 50 0 0.0 0.0 0.00 0.18 0.00 100 1017.3
20260502050037 50 0 0.0 0.0 0.00 0.18 0.00 100 1017.5
20260502044540 50 0 0.0 0.0 0.00 0.18 0.00 100 1017.5
20260502043045 50 0 0.0 0.0 0.00 0.18 0.00 100 1017.5
20260502041538 50 0 0.0 0.0 0.00 0.18 0.00 100 1017.8
20260502040051 50 0 0.0 0.0 0.00 0.18 0.00 100 1017.7
20260502034535 50 0 0.0 0.0 0.00 0.18 0.00 100 1017.8
20260502033036 50 0 0.0 0.0 0.00 0.18 0.00 100 1017.9
20260502031546 50 0 0.0 0.0 0.00 0.18 0.00 100 1018.1
20260502030037 50 0 0.0 0.0 0.00 0.18 0.00 100 1018.1
20260502024534 50 0 0.0 0.0 0.00 0.18 0.00 100 1018.2
20260502023038 49 0 0.0 0.0 0.00 0.18 0.00 100 1018.3
20260502021544 49 0 0.0 0.0 0.00 0.18 0.00 100 1018.4
20260502020048 49 0 0.0 0.0 0.00 0.18 0.00 100 1018.7
20260502014548 49 0 0.0 0.0 0.00 0.18 0.00 100 1018.7
20260502013038 49 0 0.0 0.0 0.00 0.18 0.00 100 1018.9
20260502011538 49 0 0.0 0.0 0.00 0.18 0.00 100 1018.9